STARLINK-4197 (52849 NORAD) Tracking and Keplerian Element Data

This shows tracking and keplerian element data for the satellite.

Feedback or suggestion? Click here.




ElementValue
Catalog52849
NameSTARLINK-4197
Epoch Orbit1296
Epoch Day248.25001157
Epoch Year2022
RAAN16.728
Inclination53.2172
Eccentricity0.0001706
Argument of Perigee45.1949
Mean Anonmoly80.6824
Mean Motion15.10550607
Decay Rate-0.01074138
L11 52849U 22062V 22248.25001157 -.01074138 00000+0 -69559-1 0 9999
L22 52849 53.2172 16.7280 0001706 45.1949 80.6824 15.10550607 12966

Live tracking and technical data element details for STARLINK-4197 (NORAD 52849). STARLINK-4197 can be tracked NOW for your location showing map with azimuth and elevation plus other details from your city location.

Track the satellite on the map from your city or location and see movement details for azimuth, elevation, latitude, longitude, range, height, and movement on the map or in text.







IsCatalogInMostPopularTable: catalog: 52849, numindb: 5
Update: records affected: 1



GetName: 52849 STARLINK-4197

Hit Count: updated at: Sun, 25 Sep 2022 08:00:27 GMT